TimeEST,TemperatureF,Dew PointF,Humidity,Sea Level PressureIn,VisibilityMPH,Wind Direction,Wind SpeedMPH,Gust SpeedMPH,PrecipitationIn,Events,Conditions,WindDirDegrees,DateUTC
12:53 AM,62.1,60.1,93,30.17,10.0,Calm,Calm,-,N/A,,Clear,0,2013-01-14 05:53:00
1:53 AM,62.1,60.1,93,30.17,10.0,ESE,5.8,-,N/A,,Clear,110,2013-01-14 06:53:00
2:53 AM,61.0,59.0,93,30.16,10.0,East,5.8,-,N/A,,Clear,100,2013-01-14 07:53:00
3:30 AM,59.0,57.2,94,30.16,1.8,Calm,Calm,-,N/A,,Clear,0,2013-01-14 08:30:00
3:39 AM,57.2,57.2,100,30.16,0.5,ENE,3.5,-,N/A,Fog,Fog,70,2013-01-14 08:39:00
3:48 AM,57.2,55.4,94,30.16,1.2,ENE,5.8,-,N/A,,Scattered Clouds,70,2013-01-14 08:48:00
3:53 AM,55.9,55.0,97,30.16,2.5,ENE,4.6,-,N/A,,Scattered Clouds,70,2013-01-14 08:53:00
4:01 AM,57.2,55.4,94,30.15,1.5,East,3.5,-,N/A,,Partly Cloudy,90,2013-01-14 09:01:00
4:06 AM,57.2,57.2,100,30.15,3.0,East,4.6,-,N/A,,Partly Cloudy,100,2013-01-14 09:06:00
4:53 AM,60.1,59.0,96,30.15,6.0,East,6.9,-,0.01,,Clear,80,2013-01-14 09:53:00
5:21 AM,57.2,55.4,94,30.15,1.8,ENE,4.6,-,N/A,,Partly Cloudy,70,2013-01-14 10:21:00
5:35 AM,57.2,55.4,94,30.15,3.0,East,5.8,-,N/A,,Clear,80,2013-01-14 10:35:00
5:53 AM,57.0,55.9,96,30.15,4.0,East,4.6,-,N/A,,Clear,90,2013-01-14 10:53:00
6:53 AM,60.1,59.0,96,30.16,8.0,East,4.6,-,N/A,,Clear,100,2013-01-14 11:53:00
7:53 AM,60.1,59.0,96,30.18,8.0,NE,4.6,-,N/A,,Scattered Clouds,50,2013-01-14 12:53:00
8:53 AM,66.0,63.0,90,30.20,10.0,ESE,3.5,-,N/A,,Partly Cloudy,120,2013-01-14 13:53:00
9:53 AM,73.0,63.0,71,30.21,10.0,ESE,6.9,-,N/A,,Partly Cloudy,120,2013-01-14 14:53:00
10:53 AM,78.1,60.1,54,30.20,10.0,SE,13.8,-,N/A,,Clear,140,2013-01-14 15:53:00
11:53 AM,80.1,59.0,48,30.18,10.0,SSE,12.7,17.3,N/A,,Clear,160,2013-01-14 16:53:00
12:53 PM,79.0,60.1,52,30.15,10.0,SSE,9.2,-,N/A,,Scattered Clouds,150,2013-01-14 17:53:00
1:53 PM,81.0,60.1,49,30.14,10.0,South,8.1,-,N/A,,Scattered Clouds,170,2013-01-14 18:53:00
2:53 PM,82.9,59.0,44,30.14,10.0,SE,5.8,-,N/A,,Overcast,140,2013-01-14 19:53:00
3:53 PM,82.0,59.0,45,30.14,10.0,SW,8.1,-,N/A,,Scattered Clouds,230,2013-01-14 20:53:00
5:53 PM,73.9,61.0,64,30.17,10.0,West,3.5,-,N/A,,Scattered Clouds,270,2013-01-14 22:53:00
6:53 PM,73.0,61.0,66,30.18,10.0,Calm,Calm,-,N/A,,Mostly Cloudy,0,2013-01-14 23:53:00
7:53 PM,66.0,61.0,84,30.18,10.0,SSE,3.5,-,N/A,,Clear,160,2013-01-15 00:53:00
8:53 PM,64.0,61.0,90,30.18,10.0,SE,4.6,-,N/A,,Clear,130,2013-01-15 01:53:00
9:53 PM,64.0,60.1,87,30.18,10.0,Calm,Calm,-,N/A,,Clear,0,2013-01-15 02:53:00
10:53 PM,64.0,60.1,87,30.17,10.0,SE,4.6,-,N/A,,Clear,130,2013-01-15 03:53:00
11:53 PM,63.0,59.0,87,30.17,10.0,ESE,4.6,-,N/A,,Clear,110,2013-01-15 04:53:00